This is the latest recevied weather packets stored in our database for station/object W4SNA-3. If no packets are shown the sender has not sent any weather packets the latest 10 day(s).
| Time | Temp. | Humidity | Pressure | Rain* | Wind** | Luminosity | Snow |
|---|---|---|---|---|---|---|---|
| 1777902310 | 16.11° C | 48% | 1015.4 hPa | 0 mm | - | - | - |
| 1777902010 | 15.56° C | 50% | 1015.3 hPa | 0 mm | - | - | - |
| 1777901710 | 15.56° C | 51% | 1015.4 hPa | 0 mm | - | - | - |
| 1777901410 | 15.56° C | 50% | 1015.4 hPa | 0 mm | - | - | - |
| 1777901110 | 15° C | 50% | 1015.5 hPa | 0 mm | - | - | - |
| 1777900810 | 14.44° C | 51% | 1015.6 hPa | 0 mm | - | - | - |
| 1777900510 | 13.89° C | 55% | 1015.5 hPa | 0 mm | - | - | - |
| 1777900211 | 13.33° C | 57% | 1015.3 hPa | 0 mm | - | - | - |
| 1777899915 | 12.78° C | 56% | 1014.5 hPa | 0 mm | - | - | - |
| 1777899612 | 12.22° C | 60% | 1014.3 hPa | 0 mm | - | - | - |
| 1777899310 | 11.67° C | 61% | 1014.3 hPa | 0 mm | - | - | - |
| 1777899011 | 11.11° C | 60% | 1014.3 hPa | 0 mm | - | - | - |
| 1777898710 | 11.11° C | 59% | 1014.3 hPa | 0 mm | - | - | - |
| 1777898410 | 11.11° C | 60% | 1014.4 hPa | 0 mm | - | - | - |
| 1777897846 | 11.11° C | 60% | 1014.3 hPa | 0 mm | - | - | - |
| 1777897547 | 11.11° C | 59% | 1014.3 hPa | 0 mm | - | - | - |
| 1777897246 | 11.11° C | 59% | 1014.2 hPa | 0 mm | - | - | - |
| 1777896947 | 11.11° C | 59% | 1014.2 hPa | 0 mm | - | - | - |
| 1777896645 | 11.11° C | 58% | 1014.2 hPa | 0 mm | - | - | - |
| 1777896346 | 11.11° C | 59% | 1014.3 hPa | 0 mm | - | - | - |
| 1777896049 | 11.11° C | 59% | 1014.2 hPa | 0 mm | - | - | - |
| 1777895753 | 10.56° C | 60% | 1014.1 hPa | 0 mm | - | - | - |
| 1777895445 | 10° C | 61% | 1014.3 hPa | 0 mm | - | - | - |
| 1777895146 | 10° C | 63% | 1014.3 hPa | 0 mm | - | - | - |
| 1777894845 | 9.44° C | 66% | 1014.2 hPa | 0 mm | - | - | - |
* Rain latest hour (hover to see other rain measurements)
** Current wind speed in m/s (hover to see current wind gust speed)